Weather History for Pascagoula, MS

Change the Weather History Date:

Wednesday, May 22, 2013

  Actual Average Record
Temperature  
Mean Temperature 72 °F -  
Max Temperature 82 °F 84 °F 94 °F (1964)
Min Temperature 64 °F 67 °F 46 °F (2002)
Cooling Degree Days 8    
Growing Degree Days 22 (Base 50)    
Moisture  
Dew Point 66 °F    
Average Humidity 88    
Maximum Humidity 100    
Minimum Humidity 60    
Precipitation  
Precipitation 0.16 in - - ()
Sea Level Pressure  
Sea Level Pressure 29.96 in    
Wind  
Wind Speed 2 mph (NW)    
Max Wind Speed 17 mph    
Max Gust Speed 26 mph    
Visibility 6 miles    
Events Rain , Thunderstorm    
Averages and records for this station are not official NWS values.
T = Trace of Precipitation, MM = Missing Value Source: NWS Daily Summary

Daily Weather History Graph

Daily Weather History Graph

Search for Another Location

Airport:

Trip Planner

Search our weather history database for the weather conditions in past years. The results will help you decide how hot, cold, wet, or windy it might be!

Date:

Astronomy

May. 22, 2013 Rise Set
Actual Time 5:55 AM CDT 7:46 PM CDT
Civil Twilight 5:29 AM CDT 8:12 PM CDT
Nautical Twilight 4:56 AM CDT 8:45 PM CDT
Astronomical Twilight 4:22 AM CDT 9:19 PM CDT
Moon 5:16 PM CDT (5/22) 3:48 AM CDT (5/22)
Length of Visible Light 14h 43m
Length of Day
13h 50m
Waxing Gibbous, 91% of the Moon is Illuminated
May 22
Waxing Gibbous
May 24
Full
May 31
Last Quarter
Jun 8
New
Jun 16
First Quarter

Hourly Weather History & Observations

Time (CDT) Temp. Heat Index Dew Point Humidity Pressure Visibility Wind Dir Wind Speed Gust Speed Precip Events Conditions
12:49 AM 68.0 °F - 66.2 °F 94% 29.94 in 6.0 mi Calm Calm - N/A   Mostly Cloudy
12:53 AM 68.0 °F - 66.0 °F 93% 29.95 in 6.0 mi Calm Calm - N/A   Mostly Cloudy
1:08 AM 68.0 °F - 66.2 °F 94% 29.94 in 4.0 mi Calm Calm - N/A   Scattered Clouds
1:53 AM 66.9 °F - 66.0 °F 97% 29.94 in 6.0 mi Calm Calm - N/A   Partly Cloudy
2:26 AM 66.2 °F - 66.2 °F 100% 29.92 in 1.5 mi Calm Calm - N/A   Partly Cloudy
2:53 AM 66.9 °F - 64.9 °F 93% 29.93 in 4.0 mi Calm Calm - N/A   Clear
2:57 AM 66.2 °F - 66.2 °F 100% 29.92 in 1.5 mi Calm Calm - N/A   Clear
3:10 AM 66.2 °F - 64.4 °F 94% 29.92 in 4.0 mi Calm Calm - N/A   Clear
3:29 AM 66.2 °F - 64.4 °F 94% 29.91 in 1.8 mi Calm Calm - N/A   Clear
3:41 AM 66.2 °F - 64.4 °F 94% 29.92 in 3.0 mi Calm Calm - N/A   Clear
3:50 AM 66.2 °F - 64.4 °F 94% 29.92 in 1.8 mi Calm Calm - N/A   Clear
3:53 AM 66.0 °F - 64.9 °F 96% 29.93 in 1.5 mi Calm Calm - N/A   Clear
4:02 AM 66.2 °F - 64.4 °F 94% 29.92 in 3.0 mi Calm Calm - N/A   Clear
4:19 AM 66.2 °F - 64.4 °F 94% 29.92 in 2.0 mi Calm Calm - N/A   Clear
4:33 AM 66.2 °F - 64.4 °F 94% 29.92 in 0.8 mi Calm Calm - N/A   Mist
4:42 AM 64.4 °F - 64.4 °F 100% 29.92 in 1.5 mi Calm Calm - N/A   Clear
4:53 AM 66.0 °F - 64.9 °F 96% 29.92 in 2.0 mi Calm Calm - N/A   Clear
5:00 AM 64.4 °F - 64.4 °F 100% 29.92 in 7.0 mi Calm Calm - N/A   Clear
5:30 AM 64.4 °F - 64.4 °F 100% 29.93 in 2.5 mi Calm Calm - N/A   Clear
5:53 AM 64.9 °F - 64.0 °F 97% 29.94 in 5.0 mi Calm Calm - N/A   Clear
6:53 AM 70.0 °F - 69.1 °F 97% 29.96 in 6.0 mi Calm Calm - N/A   Clear
7:53 AM 73.9 °F - 71.1 °F 91% 29.98 in 7.0 mi Calm Calm - N/A   Clear
8:53 AM 77.0 °F - 72.0 °F 84% 30.00 in 10.0 mi NNW 6.9 mph - N/A   Partly Cloudy
9:05 AM 73.4 °F - 66.2 °F 78% 30.00 in 10.0 mi NNW 8.1 mph - N/A   Mostly Cloudy
9:49 AM 71.6 °F - 66.2 °F 83% 30.05 in 5.0 mi NW 15.0 mph 26.5 mph 0.02 in Rain , Thunderstorm Light Thunderstorms and Rain
9:53 AM 70.0 °F - 66.0 °F 87% 30.06 in 2.5 mi NW 17.3 mph 26.5 mph 0.04 in Rain , Thunderstorm Heavy Thunderstorms and Rain
10:01 AM 68.0 °F - 64.4 °F 88% 30.06 in 1.2 mi NW 10.4 mph 26.5 mph 0.10 in Rain , Thunderstorm Heavy Thunderstorms and Rain
10:09 AM 68.0 °F - 64.4 °F 88% 30.05 in 3.0 mi NNW 9.2 mph 24.2 mph 0.12 in Rain , Thunderstorm Rain
10:21 AM 69.8 °F - 64.4 °F 83% 30.06 in 10.0 mi NNW 6.9 mph - 0.12 in Rain Light Rain
10:53 AM 71.1 °F - 66.0 °F 84% 30.03 in 10.0 mi NNE 5.8 mph - 0.12 in   Mostly Cloudy
11:53 AM 75.0 °F - 66.9 °F 76% 29.95 in 10.0 mi SE 8.1 mph - N/A   Clear
12:53 PM 75.9 °F - 66.0 °F 71% 29.96 in 10.0 mi Calm Calm - N/A   Clear
1:53 PM 77.0 °F - 66.9 °F 71% 29.93 in 10.0 mi ESE 4.6 mph - N/A   Clear
2:53 PM 80.1 °F 82.3 °F 66.9 °F 64% 29.93 in 10.0 mi Calm Calm - N/A   Clear
3:53 PM 81.0 °F 83.0 °F 66.0 °F 60% 29.91 in 10.0 mi Calm Calm - N/A   Clear
4:53 PM 81.0 °F 83.3 °F 66.9 °F 62% 29.93 in 10.0 mi WSW 6.9 mph - N/A   Clear
5:53 PM 79.0 °F - 64.9 °F 62% 29.94 in 10.0 mi SW 4.6 mph - N/A   Clear
6:53 PM 78.1 °F - 66.9 °F 68% 29.94 in 10.0 mi Calm Calm - N/A   Clear
7:53 PM 73.9 °F - 68.0 °F 82% 29.95 in 10.0 mi Calm Calm - N/A   Clear
8:53 PM 70.0 °F - 66.9 °F 90% 29.96 in 10.0 mi Calm Calm - N/A   Clear
9:53 PM 68.0 °F - 66.9 °F 96% 29.97 in 10.0 mi Calm Calm - N/A   Clear
10:53 PM 68.0 °F - 66.0 °F 93% 29.98 in 10.0 mi Calm Calm - N/A   Clear
11:53 PM 66.9 °F - 64.9 °F 93% 29.98 in 10.0 mi Calm Calm - N/A   Clear